Location: Oshawa
(43.9000°N, 78.8670°W)
Time: 03:41:20
(UTC-05:00)

Courier 1B - All Passes

Search period start: 01 February 2015 00:00
Search period end: 11 February 2015 00:00
Orbit: 963 x 1209 km, 28.3° (Epoch: 30 January)

Date Brightness Start Highest point End Pass type
(mag) Time Alt. Az. Time Alt. Az. Time Alt. Az.
01 Feb - 18:18:58 10° SSW 18:23:26 19° S 18:28:04 10° SE visible
01 Feb - 20:11:35 10° SW 20:16:28 21° S 20:21:31 10° SE visible
01 Feb - 22:06:13 10° SW 22:09:32 14° SSW 22:12:47 10° S visible
02 Feb - 17:26:01 10° SSW 17:29:58 17° SSE 17:34:06 10° SE daylight
02 Feb - 19:18:09 10° SW 19:22:57 21° S 19:27:57 10° SE visible
02 Feb - 21:12:04 10° SW 21:16:01 16° SSW 21:19:58 10° SSE visible
03 Feb - 16:33:19 10° SSW 16:36:33 14° SSE 16:39:56 10° SE daylight
03 Feb - 18:24:48 10° SW 18:29:28 21° S 18:34:18 10° SE visible
03 Feb - 20:18:14 10° SW 20:22:30 17° SSW 20:26:52 10° SSE visible
04 Feb - 15:41:06 10° S 15:43:09 12° SSE 15:45:20 10° SE daylight
04 Feb - 17:31:34 10° SW 17:36:01 19° S 17:40:36 10° SE daylight
04 Feb - 19:24:33 10° SW 19:29:01 19° S 19:33:34 10° SE visible
04 Feb - 21:20:39 10° SSW 21:22:01 10° SSW 21:23:11 10° S visible
05 Feb - 16:38:27 10° SSW 16:42:34 18° S 16:46:48 10° SE daylight
05 Feb - 18:31:01 10° SW 18:35:33 20° S 18:40:11 10° SE visible
05 Feb - 20:25:39 10° SW 20:28:32 13° SSW 20:31:20 10° S visible
06 Feb - 15:45:29 10° SSW 15:49:09 16° SSE 15:52:55 10° SE daylight
06 Feb - 17:37:33 10° SW 17:42:05 20° S 17:46:42 10° SE daylight
06 Feb - 19:31:29 10° SW 19:35:04 15° SSW 19:38:37 10° SSE visible
07 Feb - 14:52:45 10° SSW 14:55:44 14° SSE 14:58:49 10° SE daylight
07 Feb - 16:44:11 10° SW 16:48:39 20° S 16:53:09 10° SE daylight
07 Feb - 18:37:38 10° SW 18:41:36 17° S 18:45:36 10° SSE visible
08 Feb - 14:00:35 10° S 14:02:19 11° SSE 14:04:12 10° SE daylight
08 Feb - 15:50:54 10° SW 15:55:12 19° S 15:59:33 10° SE daylight
08 Feb - 17:43:55 10° SW 17:48:10 18° S 17:52:25 10° SSE daylight
09 Feb - 14:57:43 10° SSW 15:01:46 17° S 15:05:52 10° SE daylight
09 Feb - 16:50:19 10° SW 16:54:43 19° S 16:59:08 10° SE daylight
09 Feb - 18:45:03 10° SW 18:47:38 12° SSW 18:50:07 10° S visible
10 Feb - 14:04:39 10° SSW 14:08:20 16° SSE 14:12:03 10° SE daylight
10 Feb - 15:56:48 10° SW 16:01:17 20° S 16:05:45 10° SE daylight
10 Feb - 17:50:49 10° SW 17:54:13 15° SSW 17:57:33 10° SSE daylight
